Simultaneous Nadir Overpasses (SNOs) Predictions

Prediction of SNOs between METOP-B and TERRA Satellite Orbit:

Table of predicted SNOs for the next 14.0 days since TLE Epoch: 2/26/2022
Index Date (METOP-B) Time (METOP-B) Lat,Lon (METOP-B) SZA (METOP-B ) Date (TERRA) Time (TERRA) Lat,Lon (TERRA) SZA (TERRA ) Distance(km) Time Diff (sec)
1 02/27/2022 10:33:06 -81.25,-115.08 88.51 02/27/2022 10:33:53 -81.25,-115.21 88.50 2.15 47
2 02/27/2022 11:23:46 81.25, 52.37 91.50 02/27/2022 11:23:19 81.25, 52.53 91.50 2.65 27
3 03/02/2022 06:07:27 -81.24, -48.88 89.58 03/02/2022 06:08:04 -81.24, -48.88 89.57 0.32 37
4 03/02/2022 06:58:05 81.27, 119.33 90.51 03/02/2022 06:57:29 81.27, 119.20 90.49 2.13 36
5 03/05/2022 01:41:48 -81.25, 17.68 90.63 03/05/2022 01:42:15 -81.25, 17.77 90.60 1.57 27
6 03/05/2022 02:32:27 81.26,-174.52 89.42 03/05/2022 02:31:41 81.26,-174.55 89.39 0.68 46
7 03/07/2022 21:16:10 -81.24, 83.83 91.73 03/07/2022 21:16:27 -81.24, 83.98 91.71 2.58 17
8 03/07/2022 22:06:48 81.26,-108.00 88.36 03/07/2022 22:05:52 81.26,-107.99 88.34 0.30 56
9 03/10/2022 16:50:30 -81.24, 150.33 92.80 03/10/2022 16:50:37 -81.25, 150.51 92.77 3.01 7



Historial Predications of SNOs between METOP-B and TERRA
